| time (UTC) | temp C | wind direction | speed KPH | gust KPH | rain 1hr cm | rain 24hr cm | rain mn cm | humidity % | barometer mb |
| 20260506201522 | 8 | 255 | 3.2 | 9.7 | 0.05 | 0.84 | 0.81 | 95 | 953.7 |
| 20260506200021 | 8 | 254 | 3.2 | 6.4 | 0.05 | 0.84 | 0.81 | 95 | 953.9 |
| 20260506194517 | 8 | 254 | 3.2 | 6.4 | 0.05 | 0.89 | 0.81 | 95 | 953.9 |
| 20260506193022 | 8 | 255 | 3.2 | 4.8 | 0.03 | 0.86 | 0.79 | 95 | 953.8 |
| 20260506191514 | 8 | 255 | 3.2 | 4.8 | 0.00 | 0.84 | 0.76 | 95 | 953.6 |
| 20260506190014 | 8 | 254 | 3.2 | 6.4 | 0.00 | 0.84 | 0.76 | 94 | 953.4 |
| 20260506184510 | 9 | 252 | 3.2 | 6.4 | 0.00 | 0.84 | 0.76 | 94 | 953.2 |
| 20260506183007 | 10 | 246 | 3.2 | 6.4 | 0.00 | 0.84 | 0.76 | 94 | 953.2 |
| 20260506181510 | 11 | 249 | 1.6 | 8.0 | 0.00 | 0.84 | 0.76 | 93 | 952.9 |
| 20260506180009 | 12 | 256 | 4.8 | 9.7 | 0.03 | 0.84 | 0.76 | 93 | 952.7 |
| 20260506174506 | 13 | 207 | 1.6 | 8.0 | 0.03 | 0.84 | 0.76 | 94 | 952.5 |
| 20260506173005 | 13 | 142 | 6.4 | 14.5 | 0.03 | 0.84 | 0.76 | 94 | 952.3 |
| 20260506171504 | 13 | 186 | 9.7 | 20.9 | 0.03 | 0.84 | 0.76 | 95 | 952.4 |
| 20260506170002 | 13 | 144 | 6.4 | 17.7 | 0.00 | 0.81 | 0.71 | 95 | 952.7 |
| 20260506164626 | 12 | 145 | 8.0 | 20.9 | 0.03 | 0.81 | 0.71 | 95 | 952.7 |
| 20260506164513 | 12 | 133 | 11.3 | 20.9 | 0.03 | 0.81 | 0.71 | 95 | 952.6 |
| 20260506163111 | 12 | 116 | 8.0 | 17.7 | 0.03 | 0.81 | 0.71 | 95 | 952.7 |
| 20260506161559 | 12 | 123 | 6.4 | 17.7 | 0.08 | 0.81 | 0.71 | 95 | 952.7 |
| 20260506160120 | 12 | 123 | 8.0 | 14.5 | 0.13 | 0.81 | 0.71 | 94 | 952.7 |
| 20260506154558 | 12 | 150 | 3.2 | 14.5 | 0.10 | 0.79 | 0.71 | 95 | 952.8 |
| 20260506153055 | 12 | 120 | 9.7 | 14.5 | 0.13 | 0.79 | 0.71 | 94 | 952.8 |
| 20260506151557 | 12 | 126 | 8.0 | 17.7 | 0.10 | 0.71 | 0.66 | 94 | 952.9 |
| 20260506144552 | 12 | 84 | 11.3 | 20.9 | 0.10 | 0.71 | 0.61 | 94 | 952.5 |
| 20260506143051 | 12 | 90 | 11.3 | 19.3 | 0.10 | 0.69 | 0.58 | 94 | 952.8 |
| 20260506141549 | 12 | 101 | 11.3 | 17.7 | 0.15 | 0.66 | 0.56 | 94 | 952.9 |
| 20260506140046 | 12 | 84 | 12.9 | 20.9 | 0.23 | 0.66 | 0.56 | 94 | 952.8 |
| 20260506134543 | 12 | 102 | 9.7 | 17.7 | 0.28 | 0.61 | 0.51 | 94 | 953.0 |
| 20260506133052 | 12 | 82 | 12.9 | 17.7 | 0.28 | 0.56 | 0.46 | 93 | 953.4 |
| 20260506131540 | 12 | 118 | 9.7 | 14.5 | 0.28 | 0.51 | 0.41 | 93 | 953.7 |
| 20260506130040 | 12 | 80 | 12.9 | 22.5 | 0.20 | 0.43 | 0.33 | 93 | 953.6 |
| 20260506124539 | 12 | 107 | 11.3 | 17.7 | 0.13 | 0.33 | 0.23 | 93 | 953.7 |
| 20260506123036 | 12 | 109 | 12.9 | 20.9 | 0.08 | 0.28 | 0.18 | 93 | 953.3 |
| 20260506121535 | 12 | 92 | 12.9 | 20.9 | 0.03 | 0.23 | 0.13 | 93 | 953.3 |
| 20260506120050 | 11 | 92 | 9.7 | 14.5 | 0.05 | 0.23 | 0.13 | 93 | 953.3 |
| 20260506114534 | 11 | 111 | 9.7 | 14.5 | 0.03 | 0.23 | 0.10 | 93 | 953.5 |
| 20260506113033 | 11 | 94 | 6.4 | 14.5 | 0.05 | 0.23 | 0.10 | 92 | 953.6 |
| 20260506111531 | 11 | 106 | 9.7 | 19.3 | 0.08 | 0.23 | 0.10 | 92 | 953.6 |
| 20260506110030 | 12 | 66 | 9.7 | 16.1 | 0.05 | 0.20 | 0.08 | 92 | 953.7 |
| 20260506104537 | 12 | 101 | 9.7 | 14.5 | 0.05 | 0.20 | 0.08 | 92 | 953.9 |
| 20260506103038 | 12 | 113 | 4.8 | 11.3 | 0.03 | 0.18 | 0.05 | 91 | 953.7 |
| 20260506101525 | 11 | 90 | 6.4 | 9.7 | 0.03 | 0.15 | 0.03 | 90 | 953.5 |
| 20260506100024 | 12 | 119 | 4.8 | 6.4 | 0.03 | 0.15 | 0.03 | 89 | 953.4 |
| 20260506094522 | 11 | 186 | 0.0 | 4.8 | 0.03 | 0.15 | 0.03 | 90 | 953.2 |
| 20260506093022 | 11 | 106 | 3.2 | 9.7 | 0.03 | 0.15 | 0.03 | 91 | 953.3 |
| 20260506091519 | 11 | 163 | 1.6 | 11.3 | 0.00 | 0.13 | 0.00 | 92 | 953.4 |
| 20260506090016 | 11 | 141 | 4.8 | 6.4 | 0.00 | 0.13 | 0.00 | 93 | 953.4 |
| 20260506084525 | 10 | 128 | 0.0 | 4.8 | 0.00 | 0.13 | 0.00 | 92 | 953.7 |
| 20260506083011 | 10 | 269 | 0.0 | 1.6 | 0.00 | 0.13 | 0.00 | 91 | 953.8 |
| 20260506081511 | 10 | 269 | 0.0 | 4.8 | 0.00 | 0.13 | 0.00 | 91 | 953.9 |
| 20260506073006 | 10 | 24 | 0.0 | 8.0 | 0.00 | 0.13 | 0.00 | 90 | 953.6 |
| 20260506071507 | 10 | 290 | 1.6 | 4.8 | 0.00 | 0.13 | 0.00 | 90 | 953.7 |
| 20260506061600 | 10 | 51 | 1.6 | 17.7 | 0.00 | 0.13 | 0.00 | 89 | 954.4 |
| 20260506044549 | 11 | 30 | 3.2 | 9.7 | 0.00 | 0.13 | 0.00 | 88 | 955.6 |
| 20260506043048 | 11 | 27 | 4.8 | 12.9 | 0.00 | 0.13 | 0.00 | 88 | 955.4 |
| 20260506041546 | 11 | 26 | 6.4 | 9.7 | 0.00 | 0.13 | 0.00 | 88 | 955.5 |
| 20260506040038 | 11 | 26 | 1.6 | 4.8 | 0.00 | 0.13 | 0.00 | 89 | 955.7 |
| 20260506034535 | 11 | 273 | 0.0 | 6.4 | 0.00 | 0.13 | 0.13 | 89 | 956.1 |
| 20260506033032 | 11 | 360 | 0.0 | 8.0 | 0.00 | 0.13 | 0.13 | 90 | 956.0 |
| 20260506031539 | 12 | 244 | 1.6 | 4.8 | 0.00 | 0.13 | 0.13 | 90 | 955.8 |
| 20260506030029 | 12 | 298 | 1.6 | 8.0 | 0.00 | 0.13 | 0.13 | 90 | 955.9 |
| 20260506024525 | 12 | 275 | 0.0 | 4.8 | 0.00 | 0.13 | 0.13 | 91 | 955.7 |
| 20260506023038 | 13 | 273 | 3.2 | 8.0 | 0.00 | 0.13 | 0.13 | 91 | 955.8 |
| 20260506021623 | 13 | 266 | 3.2 | 6.4 | 0.00 | 0.13 | 0.13 | 91 | 955.6 |
| 20260506020024 | 13 | 264 | 1.6 | 4.8 | 0.00 | 0.13 | 0.13 | 91 | 955.5 |
| 20260506014519 | 13 | 256 | 0.0 | 4.8 | 0.00 | 0.13 | 0.13 | 91 | 955.4 |
| 20260506013018 | 14 | 247 | 0.0 | 1.6 | 0.00 | 0.13 | 0.13 | 90 | 955.4 |
| 20260506011513 | 15 | 248 | 1.6 | 6.4 | 0.00 | 0.13 | 0.13 | 88 | 955.1 |
| 20260506010014 | 16 | 138 | 0.0 | 6.4 | 0.00 | 0.13 | 0.13 | 84 | 954.9 |
| 20260506004512 | 16 | 138 | 1.6 | 6.4 | 0.00 | 0.13 | 0.13 | 81 | 954.7 |
| 20260506003014 | 16 | 168 | 1.6 | 8.0 | 0.00 | 0.13 | 0.13 | 81 | 954.3 |
| 20260506001509 | 16 | 155 | 1.6 | 8.0 | 0.00 | 0.13 | 0.13 | 81 | 954.3 |
| 20260506000009 | 16 | 157 | 1.6 | 9.7 | 0.00 | 0.13 | 0.13 | 83 | 954.1 |
| 20260505234509 | 16 | 174 | 0.0 | 4.8 | 0.00 | 0.13 | 0.13 | 83 | 954.1 |
| 20260505233008 | 16 | 166 | 1.6 | 8.0 | 0.00 | 0.13 | 0.13 | 84 | 954.2 |
| 20260505231509 | 16 | 167 | 0.0 | 3.2 | 0.00 | 0.13 | 0.13 | 84 | 954.0 |
| 20260505230011 | 16 | 167 | 0.0 | 3.2 | 0.00 | 0.13 | 0.13 | 85 | 954.2 |
| 20260505224508 | 16 | 166 | 0.0 | 11.3 | 0.00 | 0.13 | 0.13 | 84 | 954.0 |
| 20260505223006 | 16 | 183 | 1.6 | 11.3 | 0.00 | 0.13 | 0.13 | 82 | 953.9 |
| 20260505221505 | 16 | 175 | 4.8 | 12.9 | 0.00 | 0.13 | 0.13 | 79 | 954.0 |
| 20260505220004 | 16 | 115 | 0.0 | 12.9 | 0.00 | 0.13 | 0.13 | 81 | 953.5 |
| 20260505214504 | 17 | 119 | 4.8 | 11.3 | 0.00 | 0.13 | 0.13 | 81 | 953.5 |
| 20260505213014 | 17 | 175 | 0.0 | 4.8 | 0.00 | 0.13 | 0.13 | 80 | 953.3 |
| 20260505211508 | 16 | 124 | 3.2 | 6.4 | 0.00 | 0.13 | 0.13 | 83 | 953.3 |
| 20260505210002 | 16 | 115 | 4.8 | 6.4 | 0.03 | 0.13 | 0.13 | 84 | 953.5 |
| 20260505204600 | 16 | 243 | 3.2 | 6.4 | 0.08 | 0.13 | 0.13 | 84 | 953.5 |
| 20260505203122 | 15 | 259 | 1.6 | 3.2 | 0.08 | 0.13 | 0.13 | 88 | 953.8 |
| 20260505201605 | 15 | 259 | 1.6 | 9.7 | 0.08 | 0.13 | 0.13 | 88 | 953.7 |